[[{"header":{"parameterUnit":"m.s-1","parameterCategory":1,"la1":30.2991,"la2":30.254,"lo1":-89.0895,"lo2":-89.0444,"dy":0.0017,"dx":0.0017,"nx":28,"ny":28,"refTime":"2023-08-30T21:00:00:Z","depth":0,"parameterNumber":2,"parameterNumberName":"U-component_of_WINDS"},"data":[0,0,0,0,0,0,0,0,0,0,0,0,0,0,0,0,0,0,0,0,0,0,0,0,0,0,0,0,0,0,0,0,0,0,0,0,0,0,0,0,0,0,0,0,0,0,0,0,0,0,0,0,0,0,0,0,0,0,-1.8696,-1.8696,0,-1.8692,-1.8692,-1.8692,-1.8639,-1.8637,-1.8636,-1.8635,-1.8631,-1.8632,-1.8634,0,0,0,0,0,0,0,0,0,0,0,0,0,-1.8659,-1.866,-1.8696,-1.8696,-1.8696,-1.8692,-1.8692,-1.8692,-1.8639,-1.8637,-1.8636,-1.8634,-1.8631,-1.8632,-1.8634,0,0,0,0,0,0,0,0,0,0,0,0,0,-1.8667,-1.8661,-1.8696,-1.8669,-1.8667,-1.8692,-1.8692,-1.8692,-1.8639,-1.8637,-1.8635,-1.8633,-1.863,-1.8632,-1.8634,-1.8685,0,0,-1.8639,-1.864,0,0,0,0,0,0,0,0,-1.8667,-1.8669,-1.8673,-1.8671,-1.8668,-1.8664,-1.8677,-1.8689,-1.864,-1.865,-1.8635,-1.8632,-1.8644,-1.8644,-1.8648,-1.8685,-1.8684,-1.8639,-1.864,-1.8641,-1.8642,0,0,0,0,0,0,0,-1.8667,-1.8669,-1.8695,-1.8673,-1.8671,-1.8658,-1.8656,-1.868,-1.8658,-1.8649,-1.8645,-1.8645,-1.8642,-1.8646,-1.8647,-1.8684,-1.8639,-1.8641,-1.8642,-1.8643,-1.8763,-1.8765,0,0,0,0,0,0,-1.867,-1.8669,-1.8695,-1.8694,-1.8663,-1.866,-1.8659,-1.8667,-1.8658,-1.8654,-1.8647,-1.8643,-1.8644,-1.8645,-1.8647,-1.8707,-1.8641,-1.8643,-1.8644,-1.8761,-1.8764,-1.8766,0,0,0,0,0,0,-1.8669,-1.8672,-1.8695,-1.868,-1.8682,-1.8663,-1.8673,-1.8668,-1.8673,-1.8656,-1.8652,-1.8655,-1.8643,-1.8645,-1.8676,-1.8706,-1.8643,-1.8645,-1.8758,-1.8762,-1.8765,-1.8826,0,0,0,0,0,0,-1.8668,-1.8673,-1.8692,-1.8681,-1.8683,-1.8724,-1.8675,-1.867,-1.8676,-1.867,-1.8663,-1.866,-1.8641,-1.8674,-1.8678,-1.8707,-1.8646,-1.8756,-1.876,-1.8764,-1.8822,-1.8831,-1.884,0,0,0,0,0,-1.8667,-1.8709,-1.8693,-1.8696,-1.8707,-1.8726,-1.8727,-1.8704,-1.8678,-1.8697,-1.8687,-1.866,-1.8702,-1.8677,-1.8681,-1.8712,-1.8754,-1.8759,-1.8763,-1.8818,-1.8829,-1.8839,0,0,0,0,0,0,-1.8724,-1.8707,-1.8689,-1.8729,-1.8729,-1.8717,-1.874,-1.8718,-1.8725,-1.872,-1.8692,-1.8691,-1.8727,-1.8722,-1.8695,-1.8761,-1.8723,-1.8729,-1.8763,-1.8774,-1.8783,-1.8784,-1.8648,0,0,0,0,0,-1.8741,-1.8758,-1.8742,-1.8779,-1.878,-1.876,-1.8768,-1.875,-1.8749,-1.8749,-1.8741,-1.8741,-1.8754,-1.8763,-1.8775,-1.882,-1.8818,-1.8843,-1.8852,-1.886,-1.8866,-1.889,-1.8901,-1.8782,-1.8782,-1.8782,0,0,-1.8777,-1.877,-1.8782,-1.879,-1.8788,-1.8807,-1.8761,-1.8782,-1.8795,-1.8752,-1.8782,-1.8775,-1.8774,-1.8813,-1.8829,-1.881,-1.8898,-1.8866,-1.8872,-1.8874,-1.8896,-1.8908,-1.8918,-1.8785,-1.8785,-1.8784,0,0,-1.8852,-1.8848,-1.8878,-1.8877,-1.8875,-1.8861,-1.8868,-1.8859,-1.8853,-1.8882,-1.8851,-1.8866,-1.8889,-1.8889,-1.8893,-1.8967,-1.8943,-1.8971,-1.9019,-1.9043,-1.9053,-1.9061,-1.9089,-1.9099,-1.8977,-1.8977,-1.8977,0,-1.8897,-1.8923,-1.8897,-1.892,-1.8925,-1.8887,-1.8918,-1.8918,-1.8919,-1.8924,-1.8902,-1.893,-1.8926,-1.8965,-1.8983,-1.8986,-1.8995,-1.8973,-1.9053,-1.9061,-1.9069,-1.9095,-1.9105,-1.8981,-1.898,-1.898,-1.898,0,-1.8979,-1.8997,-1.9022,-1.9025,-1.9032,-1.9059,-1.9037,-1.9048,-1.903,-1.9019,-1.9049,-1.9042,-1.9052,-1.9059,-1.9042,-1.9096,-1.9084,-1.9058,-1.902,-1.9084,-1.9108,-1.9118,-1.8986,-1.8984,-1.8983,-1.8983,0,0,-1.9091,-1.9078,-1.9088,-1.9089,-1.9082,-1.9096,-1.9121,-1.913,-1.9141,-1.9142,-1.9164,-1.9183,-1.9159,-1.9163,-1.9145,-1.9166,-1.9227,-1.9138,-1.9137,-1.9156,-1.9287,-1.9308,-1.932,-1.921,-1.9212,-1.9213,-1.9288,0,-1.9164,-1.9207,-1.9184,-1.923,-1.9247,-1.921,-1.9232,-1.9231,-1.9221,-1.9234,-1.9223,-1.9238,-1.9205,-1.9207,-1.9226,-1.9216,-1.9253,-1.921,-1.9231,-1.9232,-1.9234,-1.9332,-1.9354,-1.9425,-1.9297,-1.9298,-1.93,0,-1.9256,-1.9262,-1.9309,-1.93,-1.9306,-1.9327,-1.9333,-1.9346,-1.9344,-1.9335,-1.9339,-1.9316,-1.934,-1.9301,-1.9335,-1.9306,-1.9313,-1.9309,-1.9311,-1.9314,-1.9271,-1.9339,-1.9447,-1.9458,-1.9314,-1.9313,-1.9312,0,-1.9335,-1.9354,-1.9385,-1.9386,-1.9376,-1.9392,-1.9388,-1.9384,-1.9391,-1.9396,-1.9401,-1.9409,-1.9414,-1.9421,-1.9401,-1.9374,-1.9438,-1.9397,-1.9432,-1.9433,-1.9449,-1.9448,-1.9561,-1.9451,-1.9451,-1.945,-1.945,0,-1.942,-1.9451,-1.942,-1.944,-1.9473,-1.9446,-1.948,-1.9473,-1.9469,-1.9487,-1.9455,-1.9472,-1.9444,-1.9458,-1.9443,-1.9474,-1.9476,-1.947,-1.9466,-1.9474,-1.9475,-1.9479,-1.9474,-1.9453,-1.9453,-1.9452,-1.9452,0,-1.9514,-1.9495,-1.9527,-1.9514,-1.9512,-1.9537,-1.9526,-1.9544,-1.9531,-1.9554,-1.9558,-1.9538,-1.9553,-1.9534,-1.9547,-1.9536,-1.9579,-1.9567,-1.958,-1.9577,-1.9614,-1.9612,-1.9735,-1.975,-1.9629,-1.963,-1.9631,0,-1.9571,-1.9593,-1.9583,-1.9593,-1.9591,-1.9606,-1.9613,-1.9587,-1.9596,-1.9595,-1.9613,-1.9625,-1.9634,-1.966,-1.9647,-1.9658,-1.9646,-1.9688,-1.9648,-1.9655,-1.9649,-1.9648,-1.9651,-1.9698,-1.9699,-1.97,-1.9701,0,-1.9673,-1.9663,-1.9673,-1.9681,-1.969,-1.9695,-1.9697,-1.9707,-1.968,-1.9691,-1.9706,-1.9713,-1.9726,-1.9739,-1.9746,-1.9742,-1.9718,-1.9714,-1.9723,-1.9732,-1.974,-1.9737,-1.9605,-1.9712,-1.971,-1.971,-1.9709,-1.9709,-1.9751,-1.977,-1.9766,-1.9779,-1.9778,-1.9781,-1.9797,-1.9787,-1.9799,-1.9808,-1.9791,-1.9811,-1.9808,-1.9814,-1.9813,-1.9829,-1.981,-1.9823,-1.9827,-1.9831,-1.9837,-1.9736,-1.9829,-1.9829,-1.9829,-1.9829,-1.9828,0,-1.9854,-1.9849,-1.9861,-1.9866,-1.9876,-1.9851,-1.9852,-1.9863,-1.988,-1.988,-1.9889,-1.9906,-1.9919,-1.9907,-1.9917,-1.9931,-1.992,-1.9935,-1.9935,-1.9935,-1.9852,-1.9844,-1.9944,-1.9944,-1.9944,-1.9944,-1.9944,-1.9944,-1.9908,-1.9939,-1.9928,-1.9958,-1.9953,-1.9972,-1.9975,-1.9977,-1.9977,-1.9998,-2.0008,-2.0,-1.9994,-2.0004,-2.0014,-2.001,-2.0016,-2.0036,-2.0028,-1.9951,-1.994,-1.9929,-1.9922,-2.0037,-2.0037,-2.0109,-2.011,-2.0111]},{"header":{"parameterUnit":"m.s-1","parameterCategory":1,"la1":30.2991,"la2":30.254,"lo1":-89.0895,"lo2":-89.0444,"dy":0.0017,"dx":0.0017,"nx":28,"ny":28,"refTime":"2023-08-30T21:00:00:Z","depth":0,"parameterNumber":3,"parameterNumberName":"V-component_of_WINDS"},"data":[0,0,0,0,0,0,0,0,0,0,0,0,0,0,0,0,0,0,0,0,0,0,0,0,0,0,0,0,0,0,0,0,0,0,0,0,0,0,0,0,0,0,0,0,0,0,0,0,0,0,0,0,0,0,0,0,0,0,-3.7447,-3.7447,0,-3.7456,-3.7456,-3.7456,-3.7412,-3.7411,-3.741,-3.7409,-3.7416,-3.7417,-3.7418,0,0,0,0,0,0,0,0,0,0,0,0,0,-3.7392,-3.7393,-3.7447,-3.7447,-3.7447,-3.7456,-3.7456,-3.7456,-3.7413,-3.7411,-3.741,-3.7408,-3.7415,-3.7417,-3.7418,0,0,0,0,0,0,0,0,0,0,0,0,0,-3.741,-3.7394,-3.7447,-3.7427,-3.7425,-3.7456,-3.7456,-3.7456,-3.7413,-3.7411,-3.7409,-3.7407,-3.7415,-3.7417,-3.7419,-3.7469,0,0,-3.7425,-3.7426,0,0,0,0,0,0,0,0,-3.7409,-3.7412,-3.743,-3.7428,-3.7426,-3.7431,-3.7439,-3.746,-3.7413,-3.7418,-3.7409,-3.7407,-3.7422,-3.7424,-3.7429,-3.7469,-3.7469,-3.7425,-3.7426,-3.7427,-3.7428,0,0,0,0,0,0,0,-3.7408,-3.7411,-3.745,-3.743,-3.7428,-3.7417,-3.7417,-3.7443,-3.743,-3.7417,-3.7414,-3.7416,-3.7421,-3.7427,-3.7429,-3.7469,-3.7425,-3.7427,-3.7428,-3.7429,-3.7551,-3.7553,0,0,0,0,0,0,-3.7409,-3.7411,-3.745,-3.7451,-3.7413,-3.7419,-3.742,-3.7431,-3.743,-3.7428,-3.7417,-3.7414,-3.7425,-3.7427,-3.7429,-3.7488,-3.7427,-3.7429,-3.743,-3.7549,-3.7551,-3.7553,0,0,0,0,0,0,-3.7408,-3.7413,-3.745,-3.743,-3.7434,-3.7422,-3.7436,-3.7433,-3.7439,-3.743,-3.7427,-3.7426,-3.7423,-3.7426,-3.7459,-3.7487,-3.743,-3.7432,-3.7546,-3.7549,-3.7552,-3.7605,0,0,0,0,0,0,-3.7407,-3.7413,-3.7432,-3.7431,-3.7435,-3.7481,-3.7437,-3.7434,-3.7443,-3.7438,-3.7438,-3.7436,-3.7422,-3.7457,-3.7461,-3.7489,-3.7433,-3.7544,-3.7548,-3.7551,-3.7601,-3.761,-3.7617,0,0,0,0,0,-3.7405,-3.7447,-3.7434,-3.7439,-3.7459,-3.7482,-3.7485,-3.7469,-3.7445,-3.7464,-3.7458,-3.7436,-3.7484,-3.746,-3.7465,-3.7494,-3.7542,-3.7547,-3.7551,-3.7597,-3.7608,-3.7617,0,0,0,0,0,0,-3.7451,-3.7446,-3.7432,-3.7474,-3.7479,-3.7475,-3.7498,-3.748,-3.7492,-3.7487,-3.7466,-3.7466,-3.7503,-3.7502,-3.7476,-3.7542,-3.7509,-3.7514,-3.7542,-3.7552,-3.756,-3.756,-3.7435,0,0,0,0,0,-3.7466,-3.7487,-3.7481,-3.7518,-3.7522,-3.751,-3.7519,-3.7507,-3.7511,-3.7513,-3.7509,-3.7514,-3.753,-3.7541,-3.7555,-3.7601,-3.76,-3.7623,-3.7631,-3.7638,-3.7643,-3.7667,-3.7678,-3.7568,-3.7568,-3.7568,0,0,-3.7498,-3.7497,-3.7511,-3.7527,-3.753,-3.7551,-3.7512,-3.7535,-3.7551,-3.7516,-3.7547,-3.7545,-3.7549,-3.7589,-3.7606,-3.7589,-3.7673,-3.7644,-3.7649,-3.7651,-3.7673,-3.7684,-3.7693,-3.7571,-3.7571,-3.757,0,0,-3.7565,-3.7567,-3.7599,-3.7603,-3.7607,-3.7599,-3.7607,-3.7606,-3.7603,-3.7635,-3.7609,-3.7627,-3.7655,-3.7659,-3.7664,-3.7734,-3.7714,-3.7739,-3.7782,-3.7806,-3.7815,-3.7822,-3.7848,-3.7857,-3.7745,-3.7745,-3.7745,0,-3.7604,-3.7635,-3.7617,-3.7643,-3.7651,-3.7622,-3.7654,-3.7658,-3.7667,-3.7673,-3.7653,-3.7688,-3.7688,-3.7729,-3.7746,-3.7752,-3.776,-3.7739,-3.7815,-3.7822,-3.7829,-3.7853,-3.7863,-3.7748,-3.7747,-3.7747,-3.7747,0,-3.7682,-3.7704,-3.7729,-3.7739,-3.775,-3.7779,-3.7765,-3.7778,-3.7765,-3.7759,-3.7791,-3.779,-3.7804,-3.7813,-3.7799,-3.7851,-3.7841,-3.7819,-3.7784,-3.7843,-3.7865,-3.7874,-3.7752,-3.7751,-3.775,-3.7749,0,0,-3.7778,-3.7779,-3.7789,-3.7794,-3.7797,-3.7813,-3.784,-3.7855,-3.7866,-3.7873,-3.7896,-3.792,-3.79,-3.7907,-3.7893,-3.7915,-3.7971,-3.789,-3.7889,-3.7905,-3.8028,-3.8045,-3.8056,-3.7957,-3.7959,-3.796,-3.8028,0,-3.7845,-3.7893,-3.7878,-3.7926,-3.7946,-3.7919,-3.7942,-3.7947,-3.7942,-3.7958,-3.7952,-3.797,-3.7942,-3.7946,-3.7965,-3.796,-3.7995,-3.7955,-3.7978,-3.7979,-3.7978,-3.8068,-3.8086,-3.815,-3.8037,-3.8038,-3.8039,0,-3.793,-3.7941,-3.7991,-3.7992,-3.8,-3.8021,-3.8034,-3.8049,-3.8054,-3.8048,-3.8056,-3.8039,-3.8065,-3.8031,-3.8067,-3.804,-3.8048,-3.8047,-3.8049,-3.8051,-3.8013,-3.8072,-3.817,-3.818,-3.8053,-3.8052,-3.8051,0,-3.7996,-3.8024,-3.8057,-3.8062,-3.8063,-3.8079,-3.808,-3.8083,-3.8093,-3.8103,-3.8109,-3.8122,-3.8129,-3.814,-3.8126,-3.8102,-3.8165,-3.8129,-3.8161,-3.8162,-3.8176,-3.8175,-3.8277,-3.8181,-3.8181,-3.8181,-3.818,0,-3.8072,-3.8104,-3.8087,-3.8108,-3.8143,-3.8126,-3.8161,-3.8158,-3.8161,-3.8181,-3.8157,-3.8176,-3.8157,-3.8174,-3.8163,-3.8195,-3.8198,-3.8195,-3.8192,-3.8197,-3.8198,-3.8203,-3.8198,-3.8183,-3.8183,-3.8182,-3.8182,0,-3.8152,-3.8142,-3.8177,-3.8176,-3.8176,-3.8202,-3.8201,-3.8219,-3.8213,-3.8238,-3.8243,-3.8233,-3.8252,-3.8239,-3.8258,-3.8251,-3.8293,-3.8283,-3.8292,-3.8289,-3.8322,-3.832,-3.8431,-3.8445,-3.834,-3.8341,-3.8342,0,-3.8202,-3.8226,-3.8227,-3.8239,-3.8242,-3.8261,-3.8271,-3.8255,-3.8267,-3.8274,-3.8292,-3.8309,-3.8322,-3.8353,-3.8347,-3.8361,-3.8352,-3.839,-3.8354,-3.8359,-3.8353,-3.8352,-3.8354,-3.8397,-3.8399,-3.84,-3.84,0,-3.8291,-3.8285,-3.8301,-3.8315,-3.8328,-3.8339,-3.8347,-3.8358,-3.8341,-3.8355,-3.8375,-3.8385,-3.8404,-3.8421,-3.8433,-3.8434,-3.8415,-3.8412,-3.842,-3.8426,-3.843,-3.8429,-3.8312,-3.8409,-3.8408,-3.8408,-3.8407,-3.8407,-3.8358,-3.8378,-3.8382,-3.8401,-3.8406,-3.8414,-3.8432,-3.8428,-3.8444,-3.846,-3.8449,-3.8472,-3.8476,-3.849,-3.8493,-3.851,-3.8495,-3.8507,-3.851,-3.8513,-3.8518,-3.8427,-3.8512,-3.8512,-3.8512,-3.8512,-3.8511,0,-3.8446,-3.8448,-3.8465,-3.8478,-3.8492,-3.8474,-3.8482,-3.8495,-3.8516,-3.8521,-3.8535,-3.8557,-3.8574,-3.8569,-3.8584,-3.8599,-3.8591,-3.8604,-3.8602,-3.8603,-3.8531,-3.8522,-3.861,-3.861,-3.861,-3.861,-3.861,-3.861,-3.8494,-3.8527,-3.8522,-3.8558,-3.8559,-3.8582,-3.8588,-3.8596,-3.86,-3.8627,-3.8641,-3.8638,-3.8639,-3.8654,-3.8669,-3.8667,-3.8674,-3.869,-3.8685,-3.8618,-3.8608,-3.8599,-3.8591,-3.8691,-3.8692,-3.8756,-3.8756,-3.8757]}]]